| time (UTC) | temp C | wind direction | speed KPH | gust KPH | rain 1hr cm | rain 24hr cm | rain mn cm | humidity % | barometer mb |
| 20260507153052 | 29 | 196 | 3.2 | 14.5 | 0.00 | 0.00 | 0.00 | 74 | 1016.5 |
| 20260507151551 | 29 | 184 | 3.2 | 12.9 | 0.00 | 0.00 | 0.00 | 74 | 1016.5 |
| 20260507150057 | 29 | 196 | 4.8 | 12.9 | 0.00 | 0.00 | 0.00 | 74 | 1016.6 |
| 20260507144559 | 29 | 205 | 3.2 | 9.7 | 0.00 | 0.00 | 0.00 | 73 | 1016.5 |
| 20260507143102 | 29 | 252 | 3.2 | 11.3 | 0.00 | 0.00 | 0.00 | 74 | 1016.5 |
| 20260507141552 | 28 | 0 | 3.2 | 11.3 | 0.00 | 0.00 | 0.00 | 75 | 1016.5 |
| 20260507140052 | 28 | 220 | 3.2 | 12.9 | 0.00 | 0.00 | 0.00 | 75 | 1016.4 |
| 20260507134557 | 28 | 215 | 6.4 | 12.9 | 0.00 | 0.00 | 0.00 | 76 | 1016.4 |
| 20260507133057 | 28 | 246 | 3.2 | 12.9 | 0.00 | 0.00 | 0.00 | 76 | 1016.1 |
| 20260507131611 | 28 | 210 | 3.2 | 12.9 | 0.00 | 0.00 | 0.00 | 77 | 1016.3 |
| 20260507130057 | 27 | 230 | 3.2 | 12.9 | 0.00 | 0.00 | 0.00 | 77 | 1016.1 |
| 20260507124552 | 27 | 182 | 6.4 | 12.9 | 0.00 | 0.00 | 0.00 | 78 | 1015.8 |
| 20260507123053 | 27 | 244 | 3.2 | 8.0 | 0.00 | 0.00 | 0.00 | 79 | 1015.9 |
| 20260507121554 | 27 | 225 | 4.8 | 12.9 | 0.00 | 0.00 | 0.00 | 79 | 1015.8 |
| 20260507120053 | 27 | 0 | 3.2 | 11.3 | 0.00 | 0.00 | 0.00 | 79 | 1015.7 |
| 20260507114556 | 26 | 246 | 4.8 | 11.3 | 0.00 | 0.00 | 0.00 | 80 | 1015.7 |
| 20260507113059 | 26 | 218 | 4.8 | 9.7 | 0.00 | 0.00 | 0.00 | 81 | 1015.4 |
| 20260507111554 | 26 | 212 | 3.2 | 12.9 | 0.00 | 0.00 | 0.00 | 82 | 1015.2 |
| 20260507110054 | 25 | 233 | 3.2 | 9.7 | 0.00 | 0.00 | 0.00 | 82 | 1015.0 |
| 20260507104553 | 25 | 221 | 4.8 | 14.5 | 0.00 | 0.00 | 0.00 | 82 | 1014.6 |
| 20260507103058 | 25 | 228 | 4.8 | 11.3 | 0.00 | 0.00 | 0.00 | 82 | 1014.4 |
| 20260507101556 | 25 | 238 | 4.8 | 9.7 | 0.00 | 0.00 | 0.00 | 82 | 1014.3 |
| 20260507100056 | 25 | 223 | 3.2 | 14.5 | 0.00 | 0.00 | 0.00 | 81 | 1014.3 |
| 20260507094551 | 25 | 196 | 3.2 | 9.7 | 0.00 | 0.00 | 0.00 | 81 | 1014.1 |
| 20260507093056 | 25 | 225 | 1.6 | 8.0 | 0.00 | 0.00 | 0.00 | 81 | 1014.2 |
| 20260507091555 | 25 | 202 | 3.2 | 12.9 | 0.00 | 0.00 | 0.00 | 81 | 1014.3 |
| 20260507090051 | 25 | 0 | 4.8 | 11.3 | 0.00 | 0.00 | 0.00 | 81 | 1014.1 |
| 20260507084556 | 25 | 223 | 3.2 | 12.9 | 0.00 | 0.00 | 0.00 | 81 | 1014.0 |
| 20260507083053 | 25 | 205 | 4.8 | 11.3 | 0.00 | 0.00 | 0.00 | 81 | 1014.1 |
| 20260507081553 | 25 | 205 | 6.4 | 12.9 | 0.00 | 0.00 | 0.00 | 81 | 1014.1 |
| 20260507080105 | 26 | 227 | 4.8 | 11.3 | 0.00 | 0.00 | 0.00 | 81 | 1014.1 |
| 20260507074552 | 26 | 175 | 6.4 | 14.5 | 0.00 | 0.00 | 0.00 | 80 | 1014.2 |
| 20260507073054 | 25 | 229 | 6.4 | 16.1 | 0.00 | 0.00 | 0.00 | 80 | 1014.3 |
| 20260507071609 | 26 | 216 | 4.8 | 12.9 | 0.00 | 0.00 | 0.00 | 81 | 1014.5 |
| 20260507070056 | 26 | 189 | 4.8 | 14.5 | 0.00 | 0.00 | 0.00 | 80 | 1014.4 |
| 20260507064554 | 26 | 221 | 6.4 | 12.9 | 0.00 | 0.00 | 0.00 | 80 | 1014.7 |
| 20260507063058 | 26 | 227 | 4.8 | 12.9 | 0.00 | 0.00 | 0.00 | 80 | 1015.1 |
| 20260507061600 | 26 | 209 | 6.4 | 16.1 | 0.00 | 0.00 | 0.00 | 80 | 1015.1 |
| 20260507060100 | 26 | 230 | 4.8 | 16.1 | 0.00 | 0.00 | 0.00 | 80 | 1015.0 |
| 20260507054603 | 26 | 190 | 4.8 | 16.1 | 0.00 | 0.00 | 0.00 | 80 | 1015.1 |
| 20260507053121 | 26 | 214 | 4.8 | 14.5 | 0.00 | 0.00 | 0.00 | 80 | 1015.4 |
| 20260507051605 | 26 | 213 | 3.2 | 14.5 | 0.00 | 0.00 | 0.00 | 80 | 1015.6 |
| 20260507050055 | 26 | 186 | 3.2 | 9.7 | 0.00 | 0.00 | 0.00 | 79 | 1015.7 |
| 20260507044559 | 26 | 151 | 3.2 | 16.1 | 0.00 | 0.00 | 0.00 | 79 | 1015.9 |
| 20260507043057 | 26 | 187 | 1.6 | 11.3 | 0.00 | 0.00 | 0.00 | 79 | 1015.9 |
| 20260507041604 | 26 | 192 | 3.2 | 8.0 | 0.00 | 0.00 | 0.00 | 78 | 1015.8 |
| 20260507040054 | 26 | 154 | 3.2 | 14.5 | 0.00 | 0.00 | 0.00 | 79 | 1016.1 |
| 20260507034556 | 26 | 152 | 0.0 | 11.3 | 0.00 | 0.00 | 0.00 | 79 | 1015.9 |
| 20260507033055 | 26 | 0 | 4.8 | 11.3 | 0.00 | 0.00 | 0.00 | 78 | 1015.9 |
| 20260507031600 | 26 | 117 | 1.6 | 14.5 | 0.00 | 0.00 | 0.00 | 78 | 1016.0 |
| 20260507030057 | 26 | 0 | 1.6 | 9.7 | 0.00 | 0.00 | 0.00 | 77 | 1015.9 |
| 20260507024604 | 26 | 0 | 0.0 | 6.4 | 0.00 | 0.00 | 0.00 | 78 | 1015.8 |
| 20260507023052 | 26 | 0 | 1.6 | 9.7 | 0.00 | 0.00 | 0.00 | 78 | 1015.7 |
| 20260507021557 | 26 | 111 | 1.6 | 8.0 | 0.00 | 0.00 | 0.00 | 78 | 1015.7 |
| 20260507020057 | 26 | 171 | 0.0 | 4.8 | 0.00 | 0.00 | 0.00 | 79 | 1015.7 |
| 20260507014603 | 26 | 0 | 0.0 | 4.8 | 0.00 | 0.00 | 0.00 | 79 | 1015.8 |
| 20260507013053 | 26 | 0 | 0.0 | 4.8 | 0.00 | 0.00 | 0.00 | 79 | 1015.6 |
| 20260507011552 | 26 | 174 | 0.0 | 4.8 | 0.00 | 0.00 | 0.00 | 78 | 1015.7 |
| 20260507004606 | 26 | 0 | 0.0 | 0.0 | 0.00 | 0.00 | 0.00 | 77 | 1015.8 |
| 20260507003059 | 26 | 0 | 0.0 | 4.8 | 0.00 | 0.00 | 0.00 | 76 | 1015.6 |
| 20260507001556 | 27 | 0 | 0.0 | 4.8 | 0.00 | 0.00 | 0.00 | 76 | 1015.6 |
| 20260507000054 | 27 | 0 | 1.6 | 8.0 | 0.00 | 0.00 | 0.00 | 75 | 1015.4 |
| 20260506234555 | 27 | 186 | 1.6 | 6.4 | 0.00 | 0.00 | 0.00 | 74 | 1015.3 |
| 20260506233058 | 27 | 234 | 1.6 | 9.7 | 0.00 | 0.00 | 0.00 | 74 | 1015.1 |
| 20260506231553 | 28 | 239 | 1.6 | 9.7 | 0.00 | 0.00 | 0.00 | 74 | 1015.2 |
| 20260506230056 | 28 | 0 | 3.2 | 12.9 | 0.00 | 0.00 | 0.00 | 73 | 1015.3 |
| 20260506224552 | 28 | 158 | 3.2 | 12.9 | 0.00 | 0.00 | 0.00 | 73 | 1015.1 |
| 20260506223053 | 28 | 239 | 4.8 | 12.9 | 0.00 | 0.00 | 0.00 | 73 | 1015.0 |
| 20260506221557 | 28 | 0 | 1.6 | 9.7 | 0.00 | 0.00 | 0.00 | 73 | 1014.8 |
| 20260506220054 | 28 | 236 | 4.8 | 12.9 | 0.00 | 0.00 | 0.00 | 73 | 1014.9 |
| 20260506214603 | 28 | 188 | 3.2 | 11.3 | 0.00 | 0.00 | 0.00 | 73 | 1014.9 |
| 20260506213055 | 28 | 206 | 1.6 | 9.7 | 0.00 | 0.00 | 0.00 | 73 | 1014.9 |
| 20260506211605 | 28 | 237 | 1.6 | 12.9 | 0.00 | 0.00 | 0.00 | 73 | 1014.7 |
| 20260506210056 | 28 | 221 | 1.6 | 11.3 | 0.00 | 0.00 | 0.00 | 72 | 1014.7 |
| 20260506204601 | 28 | 221 | 6.4 | 14.5 | 0.00 | 0.00 | 0.00 | 72 | 1014.9 |
| 20260506203113 | 28 | 190 | 4.8 | 12.9 | 0.00 | 0.00 | 0.00 | 72 | 1015.1 |
| 20260506201609 | 28 | 215 | 6.4 | 14.5 | 0.00 | 0.00 | 0.00 | 72 | 1015.1 |
| 20260506200108 | 28 | 244 | 8.0 | 16.1 | 0.00 | 0.00 | 0.00 | 71 | 1015.2 |
| 20260506194610 | 28 | 201 | 6.4 | 14.5 | 0.00 | 0.00 | 0.00 | 71 | 1015.4 |
| 20260506193109 | 28 | 192 | 4.8 | 12.9 | 0.00 | 0.00 | 0.00 | 72 | 1015.6 |
| 20260506191613 | 28 | 233 | 8.0 | 14.5 | 0.00 | 0.00 | 0.00 | 70 | 1015.9 |
| 20260506190100 | 28 | 185 | 6.4 | 14.5 | 0.00 | 0.00 | 0.00 | 70 | 1015.9 |
| 20260506184608 | 29 | 235 | 6.4 | 12.9 | 0.00 | 0.00 | 0.00 | 70 | 1016.1 |
| 20260506183106 | 29 | 200 | 6.4 | 16.1 | 0.00 | 0.00 | 0.00 | 70 | 1016.1 |
| 20260506181601 | 29 | 261 | 4.8 | 16.1 | 0.00 | 0.00 | 0.00 | 69 | 1016.5 |
| 20260506180113 | 29 | 225 | 3.2 | 12.9 | 0.00 | 0.00 | 0.00 | 69 | 1016.5 |
| 20260506174554 | 29 | 246 | 3.2 | 12.9 | 0.00 | 0.00 | 0.00 | 67 | 1016.6 |
| 20260506173121 | 29 | 0 | 3.2 | 12.9 | 0.00 | 0.00 | 0.00 | 69 | 1016.6 |
| 20260506171556 | 29 | 0 | 3.2 | 12.9 | 0.00 | 0.00 | 0.00 | 68 | 1016.7 |
| 20260506170057 | 29 | 0 | 1.6 | 12.9 | 0.00 | 0.00 | 0.00 | 68 | 1016.6 |
| 20260506164553 | 29 | 208 | 1.6 | 11.3 | 0.00 | 0.00 | 0.00 | 68 | 1016.6 |
| 20260506163100 | 29 | 0 | 4.8 | 14.5 | 0.00 | 0.00 | 0.00 | 68 | 1016.7 |
| 20260506161557 | 28 | 147 | 3.2 | 14.5 | 0.00 | 0.00 | 0.00 | 69 | 1016.7 |
| 20260506160100 | 28 | 194 | 4.8 | 11.3 | 0.00 | 0.00 | 0.00 | 69 | 1016.7 |
| 20260506154558 | 28 | 174 | 4.8 | 11.3 | 0.00 | 0.00 | 0.00 | 69 | 1016.7 |